Buscar
  • Menú Principal
  • Est. Meteorològica
  • Mareògraf
  • Previsió
Les dades presentades són DEUMINUTALS

Data últim calibratge: ** PENDENT **

Estat: Darrera lectura: 23/07 23:20 Hora local
Velocitat del vent: 2,6 Km/h Ratxa màxima: 7,3 km/h
V.vent (nusos): 1,4 Nudos Dir. procedència: SSE (165º)
Temp. De l'aire: 26 ºC Hum. rel.: 77,6 %
         
Rosa de vent (últimes 24 h i 7 dies previs a 23/07 23:20 Hora local )
Rosa 24 Horas Rosa 7 Días
Últimes 24 hores Últims 7 dies
Descripció de l'estació:
         
Posició de l'estació
Imagen estacion
TOTES LES DADES ESTAN EN HORA LOCAL
Data
Vel. vent. (Km/h)
Dir. vent (º)
Max. vent. (Km/h):
Temp. aire (º C)
Hum. relativa (%)
2024/07/23 23:202,71657,32677,6
2024/07/23 23:102,71628,92677,9
2024/07/23 23:005,918611,22678,0
2024/07/23 22:506,118911,62678,3
2024/07/23 22:406,019410,62678,6
2024/07/23 22:304,619710,92678,9
2024/07/23 22:207,119113,82678,9
2024/07/23 22:107,018913,22678,8
2024/07/23 22:007,419312,12678,7
2024/07/23 21:509,419316,12677,9
2024/07/23 21:409,519215,12677,6
2024/07/23 21:3010,719218,92676,8
2024/07/23 21:2010,318216,52676,0
2024/07/23 21:1013,518218,12674,9
2024/07/23 21:0014,218321,92773,7
2024/07/23 20:5015,018220,92772,7
2024/07/23 20:4013,018120,62772,6
2024/07/23 20:3011,918321,42773,1
2024/07/23 20:2012,917919,32773,9
2024/07/23 20:1014,918122,12774,4
2024/07/23 20:0013,118923,52774,4
2024/07/23 19:5011,719320,62773,8
2024/07/23 19:4011,619522,12773,1
2024/07/23 19:3011,419521,22872,2
Página 1 de 30 (705 Datos)< Prev1234567282930Next >
TOTES LES DADES ESTAN EN HORA LOCAL
Data
Vel. vent. (Km/h)
Dir. vent (º)
Max. vent. (Km/h):
Temp. aire (º C)
Hum. relativa (%)
2024/07/23 23:003,71659,12677,8
2024/07/23 22:006,418912,02678,7
2024/07/23 21:0011,319317,72676,1
2024/07/23 20:0013,518221,32773,5
2024/07/23 19:0010,719320,02872,5
2024/07/23 18:009,518718,42872,0
2024/07/23 17:0013,119223,82872,8
2024/07/23 16:0012,518823,22872,6
2024/07/23 15:0014,318826,12773,6
2024/07/23 14:0014,718127,12773,5
2024/07/23 13:0014,916122,62773,4
2024/07/23 12:0012,413918,52675,2
2024/07/23 11:0011,49517,52674,5
2024/07/23 10:009,39914,12574,3
2024/07/23 09:004,5858,22668,8
2024/07/23 08:004,82228,92368,0
2024/07/23 07:005,82669,62172,3
2024/07/23 06:004,92748,02272,6
2024/07/23 05:005,52718,52272,6
2024/07/23 04:004,52787,02272,7
2024/07/23 03:004,82697,32272,7
2024/07/23 02:002,82646,02374,6
2024/07/23 01:004,8298,72477,1
2024/07/23 00:006,015310,72573,9
Página 1 de 5 (118 Datos)< Prev12345Next >
TOTES LES DADES ESTAN EN HORA LOCAL
Data
Vel. vent. (Km/h)
Dir. vent (º)
Max. vent. (Km/h):
Temp. aire (º C)
Hum. relativa (%)
2024/07/23 00:009,016515,42573,3
2024/07/22 00:0011,42921,02552,9
2024/07/21 00:0015,725529,62745,1
2024/07/20 00:008,020914,02676,6
2024/07/19 00:008,02414,02776,2
TOTES LES DADES ESTAN EN HORA LOCAL
Les dades presentades són DEUMINUTALS
48 Hores
24 Hores
12 Hores
6 Hores
3 Hores

The Velocitat del vent (km/h) chart showing Velocitat del vent (km/h) series.

The Direcció vent (º) chart showing Direcció vent (º) series.


The Temperatura (º) chart showing Temperatura (º) series.